HST 1 20580U 90037B 26236.58263560 .00005856 00000+0 17987-3 0 9996 2 20580 28.4737 332.8671 0001937 170.8701 189.1930 15.31443318799067 POLAR 1 23802U 96013A 26235.81836052 .00000242 00000+0 00000+0 0 9991 2 23802 79.9529 226.2419 6539200 206.7602 94.5021 1.29845821145733 SWAS 1 25560U 98071A 26235.99135765 .00002384 00000+0 15294-3 0 9996 2 25560 69.8951 52.6160 0005075 181.3708 178.7443 15.09968360507501 CXO 1 25867U 99040B 26238.13521419 .00000985 00000+0 00000+0 0 9997 2 25867 57.1028 114.8710 7727577 309.5585 0.6618 0.37795883 17584 XMM-NEWTON 1 25989U 99066A 26237.16334562 .00000151 00000+0 00000+0 0 9998 2 25989 64.1233 282.0944 4655947 63.6541 0.0931 0.50125027 23345 TERRA 1 25994U 99068A 26236.65451521 .00000275 00000+0 64925-4 0 9992 2 25994 97.9404 283.4678 0002902 42.7187 117.0886 14.61148284419604 CLUSTER II-FM7 (SAMBA) 1 26410U 00041A 26228.35648488 .00204628 -13535-2 00000+0 0 9995 2 26410 149.5559 61.8704 9119992 279.7536 359.6603 0.44877167 20578 CLUSTER II-FM8 (TANGO) 1 26464U 00045B 26235.95061241 .00282324 -17355-2 00000+0 0 9991 2 26464 149.6206 64.3903 9130551 282.2349 2.0020 0.44543825 20619 TIMED 1 26998U 01055B 26236.04762316 .00000815 00000+0 77298-4 0 9993 2 26998 74.0663 98.3712 0002337 257.5298 102.5625 14.95418251340968 CORIOLIS 1 27640U 03001A 26235.27946764 .00000094 00000+0 64592-4 0 9998 2 27640 98.7160 241.1483 0014496 24.3423 335.8435 14.19960913223749 SORCE 1 27651U 03004A 26236.47213616 .00002189 00000+0 16597-3 0 9997 2 27651 39.9893 231.9877 0017554 186.5069 173.5500 15.04014700282182 MOST 1 27843U 03031D 26236.00308164 .00000049 00000+0 42686-4 0 9994 2 27843 98.7077 242.7902 0010860 60.2098 300.0158 14.21334186200349 SCISAT 1 1 27858U 03036A 26235.41600759 .00000527 00000+0 71885-4 0 9998 2 27858 73.9297 37.7566 0006080 85.3294 274.8577 14.81515611241402 SWIFT 1 28485U 04047A 26236.59884470 .00075643 00000+0 45945-3 0 9990 2 28485 20.5528 14.4043 0001460 136.4756 223.5807 15.75729359197647 HINODE (SOLAR-B) 1 29479U 06041A 26236.31542845 .00000520 00000+0 97522-4 0 9998 2 29479 98.0556 251.4674 0018845 73.4200 286.9073 14.68699803 64871 SHIJIAN-6 02A (SJ-6 02A) 1 29505U 06046A 26236.61195056 .00005791 00000+0 29141-3 0 9990 2 29505 97.6321 278.2076 0001247 255.0877 105.0218 15.17614108 82642 SHIJIAN-6 02B (SJ-6 02B) 1 29506U 06046B 26236.59004725 .00000226 00000+0 22208-4 0 9996 2 29506 97.7069 265.2052 0014949 189.0993 170.9963 15.01471612 81002 FGRST (GLAST) 1 33053U 08029A 26236.64642453 .00002991 00000+0 10558-3 0 9998 2 33053 25.5822 89.0191 0008510 56.5233 303.6118 15.24248084 6147 SDO 1 36395U 10005A 26236.09944528 -.00000080 00000+0 00000+0 0 9999 2 36395 34.7887 85.3087 0001514 69.8755 111.2433 1.00276276 60740 CRYOSAT 2 1 36508U 10013A 26236.58815266 .00000104 00000+0 25062-4 0 9990 2 36508 92.0315 293.9220 0002692 87.9392 272.2124 14.51900148868003 X-SAT 1 37389U 11015C 26236.60521644 .00000157 00000+0 84385-4 0 9999 2 37389 98.3583 210.3926 0014689 137.9486 222.2824 14.25223455797421 GCOM-W1 (SHIZUKU) 1 38337U 12025A 26236.58627850 .00000346 00000+0 86818-4 0 9991 2 38337 98.2042 176.1108 0001343 89.4158 83.4987 14.57118976758997 NUSTAR 1 38358U 12031A 26236.66668981 .00012180 00000+0 68656-3 0 9998 2 38358 6.0264 240.2498 0006561 41.4288 135.9553 15.09366138 1308 NEOSSAT 1 39089U 13009D 26236.43211253 .00000109 00000+0 52361-4 0 9992 2 39089 98.4216 54.8587 0011890 47.5521 312.6669 14.35846901706536 BRITE-AUSTRIA 1 39091U 13009F 26236.32706205 .00000133 00000+0 59749-4 0 9993 2 39091 98.4035 54.0939 0010961 42.0841 318.1185 14.36565083706831 IRIS 1 39197U 13033A 26235.97470058 .00000799 00000+0 97309-4 0 9993 2 39197 97.9302 75.0376 0025828 96.6592 263.7564 14.86002234710440 HISAKI (SPRINT-A) 1 39253U 13049A 26236.40080075 .00000105 00000+0 50907-4 0 9992 2 39253 29.7189 233.2071 0136683 209.8036 149.4692 13.55549170640682 CASSIOPE 1 39265U 13055A 26236.54920448 .00050048 -17579-6 51887-3 0 9999 2 39265 80.9164 343.3937 0275732 190.9472 168.5693 15.29587251678100 STSAT-3 1 39422U 13066G 26236.62211919 .00000552 00000+0 45405-4 0 9999 2 39422 97.6261 205.4378 0010178 150.9693 209.2100 15.03071925694480 SWARM B 1 39451U 13067A 26236.60341929 .00002845 00000+0 10001-3 0 9995 2 39451 87.7472 321.5445 0003167 101.7995 258.3610 15.28935132693699 SWARM A 1 39452U 13067B 26236.55817719 .00009445 00000+0 16566-3 0 9990 2 39452 87.3314 30.8290 0002427 86.9347 273.2191 15.50379784716845 SWARM C 1 39453U 13067C 26236.55808773 .00009529 00000+0 16715-3 0 9990 2 39453 87.3318 29.4110 0002422 87.7118 272.4420 15.50381185716805 BRITE-CA1 (TORONTO) 1 40020U 14033L 26236.59149720 .00000655 00000+0 10549-3 0 9990 2 40020 97.9821 4.2920 0079605 58.5225 302.3731 14.72789549652283 OCO 2 1 40059U 14035A 26236.54939708 .00000294 00000+0 75435-4 0 9997 2 40059 98.2039 176.8103 0001589 90.9883 269.1497 14.57085176646005 BRITE-PL2 (HEWELIUSZ) 1 40119U 14049B 26236.58933643 .00001813 00000+0 17200-3 0 9998 2 40119 97.9144 349.1447 0012709 239.1016 120.8955 14.94795331651664 MMS 1 1 40482U 15011A 26236.66668981 -.00002201 00000+0 00000+0 0 9999 2 40482 72.8079 347.9801 8274573 168.8550 84.2588 0.28344469 1381 MMS 2 1 40483U 15011B 26236.66668981 -.00002203 00000+0 00000+0 0 9992 2 40483 72.8123 347.9790 8277405 168.8570 84.2404 0.28344433 1386 MMS 3 1 40484U 15011C 26236.66668981 -.00002202 00000+0 00000+0 0 9992 2 40484 72.8117 347.9911 8275775 168.8652 84.2141 0.28344447 1387 MMS 4 1 40485U 15011D 26236.66668981 -.00002202 00000+0 00000+0 0 9993 2 40485 72.8062 347.9749 8275795 168.8750 84.2119 0.28344422 1385 ASTROSAT 1 40930U 15052A 26236.37157112 .00001520 00000+0 10286-3 0 9992 2 40930 5.9983 24.5222 0008573 287.8415 72.0778 14.82610709589963 DAMPE 1 41173U 15078A 26236.60517061 .00001287 00000+0 45611-4 0 9990 2 41173 97.4593 242.4258 0011393 184.8814 175.2318 15.30935044595014 PISAT 1 41784U 16059B 26236.46119930 .00000830 00000+0 14843-3 0 9990 2 41784 97.8228 233.9983 0028732 350.5222 9.5438 14.69093189529768 HXMT (HUIYAN) 1 42758U 17034A 26236.26966392 .00003994 00000+0 19649-3 0 9999 2 42758 43.0138 163.7894 0032205 219.1375 140.7143 15.18966924508010 FLYING LAPTOP 1 42831U 17042G 26236.63398863 .00002977 00000+0 23408-3 0 9991 2 42831 97.4955 29.6781 0016146 255.4679 104.4755 15.01504069496723 ZHANGHENG 1-01 (CSES-1) 1 43194U 18015C 26236.63101618 .00005593 00000+0 25433-3 0 9992 2 43194 97.6931 43.6769 0016414 33.9111 326.3170 15.21046395475045 SALSAT 1 46495U 20068K 26235.95590157 .00006873 00000+0 23443-3 0 9995 2 46495 97.8879 243.2009 0011187 69.3904 290.8534 15.30648655325720 IXPE 1 49954U 21121A 26236.66668981 .00010121 00000+0 53655-3 0 9998 2 49954 0.2292 159.3146 0007118 32.9105 23.4526 15.10803586 5659 SMILE 1 69123U 26109A 26232.83835195 .00000724 00000+0 00000+0 0 9997 2 69123 70.0346 206.3624 8229755 286.2672 0.0372 0.47505607 238